sat.trackr.live / text

‹ back to catalog

STARLINK-34461

NORAD 64418 · 2025-129G

PAYLOAD ACTIVE UNKNOWN

§ Identity

Operator
Country
US
Launch date
2025-06-17
Launch site
AFWTR
Launch vehicle
Mass (kg)
RCS (m²)

Purposes: comms

External: N2YO · Heavens-Above · Gunter

§ Orbital elements

Epoch: 2026-05-25T00:02:13.183872Z

Period
96.11 min
Inclination
70.0006°
Eccentricity
0.0003242
Mean motion
14.98334604 rev/d
Perigee alt
569.8 km
Apogee alt
574.3 km
Semi-major
6,950.2 km
B*
1.9979e-4
RAAN
242.2202°
Arg perigee
270.9983°
Mean anomaly
89.0805°
Rev number
5,271

§ Raw data

STARLINK-344611 64418U 25129G   26145.00154148  .00002292  00000+0  19979-3 0  99952 64418  70.0006 242.2202 0003242 270.9983  89.0805 14.98334604 52718

JSON: /api/v1/satellites/64418 · /tle

For live sub-satellite position, see the globe view (requires WebGL).

§ Visibility from observer

Set your observer location to see the next 7 days of passes ≥ 10°. The values pass through the URL so the page stays shareable.

No JS? Fill the form by hand. The geolocation button needs JavaScript.